DW5091 Weather Reports


time (UTC)temp
F
wind
direction
speed
knots
gust
knots
rain 1hr
in
rain 24hr
in
rain mn
in
humidity
%
barometer
mb
20260507134104 58 123 2.6 4.3 0.00 0.00 0.00 63 1016.1
20260507131603 58 127 2.6 7.8 0.00 0.00 0.00 63 1016.2
20260507131103 58 133 1.7 5.2 0.00 0.00 0.00 65 1016.2
20260507123603 57 130 5.2 7.8 0.00 0.00 0.00 62 1016.4
20260507122603 58 136 3.5 7.0 0.00 0.00 0.00 62 1016.4
20260507122103 58 149 2.6 8.7 0.00 0.00 0.00 61 1016.4
20260507121103 58 135 2.6 10.4 0.00 0.00 0.00 63 1016.4
20260507120603 58 133 3.5 7.0 0.00 0.00 0.00 62 1016.3
20260507114603 58 133 1.7 5.2 0.00 0.00 0.00 60 1016.4
20260507113103 59 141 1.7 5.2 0.00 0.00 0.00 58 1016.4
20260507112603 59 118 1.7 6.1 0.00 0.00 0.00 57 1016.3
20260507112103 59 124 1.7 5.2 0.00 0.00 0.00 56 1016.3
20260507110603 59 141 4.3 10.4 0.00 0.00 0.00 54 1016.4
20260507103104 59 117 2.6 5.2 0.00 0.00 0.00 63 1016.5
20260507102604 60 133 1.7 5.2 0.00 0.00 0.00 63 1016.5
20260507101604 57 119 2.6 6.1 0.00 0.00 0.00 68 1016.6
20260507100603 57 125 0.9 4.3 0.00 0.00 0.00 72 1016.7
20260507100103 57 126 1.7 2.6 0.00 0.00 0.00 73 1016.7
20260507095603 56 118 1.7 4.3 0.00 0.00 0.00 75 1016.7
20260507095105 56 143 1.7 4.3 0.00 0.00 0.00 74 1016.6
20260507093104 56 109 2.6 5.2 0.00 0.00 0.00 73 1016.8
20260507092603 56 128 0.9 5.2 0.00 0.00 0.00 73 1016.7
20260507092103 55 149 2.6 4.3 0.00 0.00 0.00 74 1016.7
20260507091605 56 144 1.7 6.1 0.00 0.00 0.00 72 1016.8
20260507084103 54 134 0.9 2.6 0.00 0.00 0.00 79 1016.8
20260507083603 54 133 1.7 4.3 0.00 0.00 0.00 78 1016.8
20260507082103 52 135 0.9 1.7 0.00 0.00 0.00 81 1016.8
20260507081103 51 128 0.9 2.6 0.00 0.00 0.00 83 1016.8
20260507073103 47 121 0.9 2.6 0.00 0.00 0.00 87 1016.7
20260507072603 47 135 0.9 1.7 0.00 0.00 0.00 87 1016.7
20260507072103 47 127 0.9 1.7 0.00 0.00 0.00 88 1016.7
20260507071604 47 139 0.9 1.7 0.00 0.00 0.00 88 1016.7
20260507070603 46 118 0.9 1.7 0.00 0.00 0.00 88 1016.7
20260507065103 46 111 0.0 0.9 0.00 0.00 0.00 90 1016.6
20260507064603 45 77 0.0 0.9 0.00 0.00 0.00 90 1016.6
20260507064103 45 76 0.0 0.9 0.00 0.00 0.00 91 1016.6
20260507063603 45 75 0.0 0.0 0.00 0.00 0.00 91 1016.7
20260507063103 44 75 0.0 0.9 0.00 0.00 0.00 91 1016.6
20260507061103 44 142 0.9 2.6 0.00 0.00 0.00 91 1016.5
20260507053104 43 129 0.0 0.9 0.00 0.00 0.00 90 1016.1
20260507051603 43 112 0.0 0.9 0.00 0.00 0.00 90 1016.1
20260507050103 43 110 0.0 0.9 0.00 0.00 0.00 90 1016.1
20260507045603 43 110 0.0 0.9 0.00 0.00 0.00 90 1016.2
20260507044604 43 110 0.0 0.9 0.00 0.00 0.00 89 1016.0
20260507043604 43 131 0.0 0.9 0.00 0.00 0.00 89 1016.0
20260507042102 43 107 0.0 1.7 0.00 0.00 0.00 89 1016.0
20260507041103 43 117 0.0 0.9 0.00 0.00 0.00 89 1015.9
20260507040103 43 126 0.0 0.9 0.00 0.00 0.00 89 1016.0
20260507035603 43 105 0.0 0.9 0.00 0.00 0.00 89 1016.0
20260507035103 43 106 0.0 0.9 0.00 0.00 0.00 89 1015.9
20260507034602 43 105 0.0 0.0 0.00 0.00 0.00 89 1016.0
20260507033103 43 105 0.0 0.0 0.00 0.00 0.00 89 1016.0
20260507032604 43 105 0.0 0.0 0.00 0.00 0.00 89 1016.0
20260507032103 43 105 0.0 0.9 0.00 0.00 0.00 89 1016.0
20260507031103 43 105 0.0 0.9 0.00 0.00 0.00 89 1016.0
20260507030603 43 105 0.0 0.9 0.00 0.00 0.00 89 1015.9
20260507025603 43 105 0.0 0.9 0.00 0.00 0.00 88 1016.0
20260507023103 43 129 0.0 0.9 0.00 0.00 0.00 88 1015.8
20260507022603 43 120 0.0 1.7 0.00 0.00 0.00 87 1015.8
20260507022103 43 129 0.0 0.9 0.00 0.00 0.00 87 1015.9
20260507021605 43 127 0.0 0.9 0.00 0.00 0.00 87 1015.9
20260507020103 43 117 0.0 0.9 0.00 0.00 0.00 88 1015.9
20260507015603 43 117 0.0 0.9 0.00 0.00 0.00 88 1015.9
20260507015104 43 113 0.0 0.9 0.00 0.00 0.00 88 1015.9
20260507013103 43 130 0.0 1.7 0.00 0.00 0.00 87 1016.0
20260507012603 43 127 0.0 0.9 0.00 0.00 0.00 87 1015.9
20260507011103 43 125 0.0 0.9 0.00 0.00 0.00 86 1015.9
20260507010105 43 115 0.0 0.9 0.00 0.00 0.00 86 1015.9
20260507005103 44 127 0.0 0.9 0.00 0.00 0.00 86 1016.0
20260507003605 44 129 0.0 1.7 0.00 0.00 0.00 85 1016.0
20260507003103 44 128 0.0 0.9 0.00 0.00 0.00 85 1016.0
20260507002604 44 139 0.0 0.9 0.00 0.00 0.00 85 1016.1
20260507002103 44 127 0.9 1.7 0.00 0.00 0.00 84 1016.0
20260507001603 44 130 0.0 0.9 0.00 0.00 0.00 84 1016.1
20260507000104 44 131 0.0 0.9 0.00 0.00 0.00 83 1016.1
20260506235603 44 94 0.9 1.7 0.00 0.00 0.00 83 1016.1
20260506234603 44 120 0.0 0.9 0.00 0.00 0.00 83 1016.1
20260506234103 43 110 0.0 0.9 0.00 0.00 0.00 84 1016.2
20260506233603 43 128 0.0 0.0 0.00 0.00 0.00 83 1016.1
20260506232103 43 128 0.0 0.0 0.00 0.00 0.00 82 1016.0
20260506231104 44 128 0.0 0.0 0.00 0.00 0.00 82 1016.0
20260506230103 44 128 0.0 0.0 0.00 0.00 0.00 81 1016.0
20260506225103 44 128 0.0 0.9 0.00 0.00 0.00 81 1016.0
20260506224103 44 130 0.0 0.0 0.00 0.00 0.00 81 1016.0
20260506223603 44 130 0.0 0.0 0.00 0.00 0.00 80 1016.0
20260506223103 45 130 0.0 0.0 0.00 0.00 0.00 80 1015.9
20260506221605 45 130 0.0 0.0 0.00 0.00 0.00 79 1015.7
20260506221103 45 130 0.0 0.0 0.00 0.00 0.00 78 1015.7
20260506215603 46 130 0.0 0.0 0.00 0.00 0.00 77 1015.6
20260506213603 47 130 0.0 0.9 0.00 0.00 0.00 76 1015.7
20260506213104 47 130 0.0 0.0 0.00 0.00 0.00 76 1015.6
20260506212603 47 130 0.0 0.0 0.00 0.00 0.00 75 1015.6
20260506211604 47 130 0.0 0.0 0.00 0.00 0.00 74 1015.5
20260506211103 48 130 0.0 0.0 0.00 0.00 0.00 74 1015.5
20260506205603 48 130 0.0 0.9 0.00 0.00 0.00 72 1015.5
20260506204605 49 127 0.0 0.9 0.00 0.00 0.00 71 1015.4
20260506204104 49 129 0.0 0.9 0.00 0.00 0.00 70 1015.4
20260506203104 50 326 0.0 1.7 0.00 0.00 0.00 69 1015.3
20260506202104 50 328 0.0 0.9 0.00 0.00 0.00 67 1015.1
20260506201604 51 327 0.0 0.9 0.00 0.00 0.00 67 1015.1
20260506201103 51 318 0.0 1.7 0.00 0.00 0.00 66 1015.1
20260506200603 51 313 0.0 0.9 0.00 0.00 0.00 65 1015.1
20260506200104 52 328 0.0 0.9 0.00 0.00 0.00 65 1015.1
20260506195104 52 340 0.9 1.7 0.00 0.00 0.00 64 1015.0
20260506194603 53 319 0.0 1.7 0.00 0.00 0.00 63 1014.9
20260506194103 53 333 0.0 1.7 0.00 0.00 0.00 62 1014.9
20260506193104 53 341 0.0 0.9 0.00 0.00 0.00 61 1014.9
20260506192604 54 325 0.9 4.3 0.00 0.00 0.00 60 1014.9
20260506192103 54 358 0.9 4.3 0.00 0.00 0.00 58 1014.8
20260506191103 55 350 0.9 4.3 0.00 0.00 0.00 57 1014.6
20260506190603 55 0 1.7 4.3 0.00 0.00 0.00 57 1014.7
20260506182602 55 353 1.7 5.2 0.00 0.00 0.00 54 1014.6
20260506181603 55 7 2.6 7.8 0.00 0.00 0.00 53 1014.5
20260506175103 56 357 1.7 5.2 0.00 0.00 0.00 54 1014.3
20260506174103 56 357 3.5 8.7 0.00 0.00 0.00 53 1014.2
20260506173603 57 336 2.6 6.1 0.00 0.00 0.00 53 1014.2
20260506170103 57 340 2.6 5.2 0.00 0.00 0.00 52 1014.2
20260506165603 57 357 2.6 7.8 0.00 0.00 0.00 52 1014.1
20260506164103 57 0 3.5 6.1 0.00 0.00 0.00 51 1014.1
20260506162603 57 334 1.7 2.6 0.00 0.00 0.00 53 1014.0
20260506161603 57 348 3.5 7.8 0.00 0.00 0.00 53 1014.0
20260506161103 57 350 4.3 7.8 0.00 0.00 0.00 52 1014.1
20260506160603 57 344 2.6 10.4 0.00 0.00 0.00 52 1014.1
20260506160104 58 344 3.5 7.8 0.00 0.00 0.00 51 1014.1
20260506155603 58 4 1.7 4.3 0.00 0.00 0.00 52 1014.1
20260506153603 58 348 5.2 7.8 0.00 0.00 0.00 53 1014.2
20260506150604 57 352 2.6 7.8 0.00 0.00 0.00 53 1014.2
20260506145603 57 342 1.7 2.6 0.00 0.00 0.00 54 1014.3
20260506144604 57 357 5.2 11.3 0.00 0.00 0.00 53 1014.4
20260506144105 57 355 5.2 10.4 0.00 0.00 0.00 53 1014.4
20260506142605 57 359 6.1 11.3 0.00 0.00 0.00 54 1014.5
20260506142104 58 357 7.8 12.2 0.00 0.00 0.00 53 1014.5
20260506141603 58 156 0.0 2.6 0.00 0.00 0.00 54 1014.5